Torna al catalogo

COSMOS 1275 DEB

AttivoPO
NORAD 13074·DEBRIS·🇷🇺 Russia

Lanciato Jun 4, 1981 da Plesetsk Cosmodrome

Loading…

Prossimi Passaggi (prossime 24 ore)

TLE

AggiornatoSource: Space-Track

Epoca: Sep 14, 2026, 08:05 UTC

1 13074U 81053FA  26257.33747777  .00000355  00000-0  30281-3 0  9999
2 13074  82.9432 112.0399 0031021 354.5676 131.7704 13.84395486268845

Traccia COSMOS 1275 DEB in tempo reale con AllMySat

Download on the App Store